sat.trackr.live / text

‹ back to catalog

STARLINK-33913

NORAD 65215 · 2025-176T

PAYLOAD ACTIVE UNKNOWN

§ Identity

Operator
Country
US
Launch date
2025-08-14
Launch site
AFETR
Launch vehicle
Mass (kg)
RCS (m²)

Purposes: comms

External: N2YO · Heavens-Above · Gunter

§ Orbital elements

Epoch: 2026-09-20T10:18:51.766848Z

Period
93.85 min
Inclination
53.1608°
Eccentricity
0.0001125
Mean motion
15.34421156 rev/d
Perigee alt
461.9 km
Apogee alt
463.4 km
Semi-major
6,840.8 km
B*
7.6133e-4
RAAN
326.2230°
Arg perigee
66.9698°
Mean anomaly
293.1424°
Rev number
6,296

§ Raw data

STARLINK-339131 65215U 25176T   26263.42976582  .00025451  00000+0  76133-3 0  99912 65215  53.1608 326.2230 0001125  66.9698 293.1424 15.34421156 62965

JSON: /api/v1/satellites/65215 · /tle

For live sub-satellite position, see the globe view (requires WebGL).

§ Visibility from observer

Set your observer location to see the next 7 days of passes ≥ 10°. The values pass through the URL so the page stays shareable.

No JS? Fill the form by hand. The geolocation button needs JavaScript.